�N����,����,����,����,����,�C��,���x,�~����,�S�V����,�ő�u�ԕ���,,,,,
,,,,,,,,,����,����,����,�N��,,
yyyy/mm/dd,hh:mm:ss,(16),16����,m/s,��,%,mm,KW/�u,(16),16����,m/s,Time,,
2020/6/1,1:00:00,12,��,2.5,6.6,84.1,0,0,12,��,3.8,38,,
2020/6/1,2:00:00,13,���k��,2.1,4.9,89.5,0,0,12,��,3,6,,
2020/6/1,3:00:00,13,���k��,1,4.7,87.9,0,0,12,��,3,20,,
2020/6/1,4:00:00,12,��,1.5,2.7,91.6,0,0,12,��,2.3,37,,
2020/6/1,5:00:00,13,���k��,1.2,6.8,91.2,0,0.08,12,��,2.1,26,,
2020/6/1,6:00:00,16,�É�,0.2,12,76.1,0,0.26,12,��,5.1,23,,
2020/6/1,7:00:00,4,��,0.4,16.2,61.9,0,0.47,3,���k��,2.1,24,,
2020/6/1,8:00:00,5,���쓌,1.9,16.8,58.6,0,0.66,6,�쓌,3.3,38,,
2020/6/1,9:00:00,5,���쓌,2.5,15.9,59,0,0.83,6,�쓌,4.1,46,,
2020/6/1,10:00:00,5,���쓌,2.8,16.2,62.1,0,0.98,5,���쓌,4.4,57,,
2020/6/1,11:00:00,7,��쓌,3.4,14.7,76.1,0,1.07,7,��쓌,5.1,46,,
2020/6/1,12:00:00,6,�쓌,3.1,14.5,76.8,0,1.1,7,��쓌,5.3,13,,
2020/6/1,13:00:00,6,�쓌,3.2,14.1,79.1,0,1.05,6,�쓌,5.6,56,,
2020/6/1,14:00:00,6,�쓌,3.4,13.9,80.6,0,0.92,5,���쓌,7.4,13,,
2020/6/1,15:00:00,7,��쓌,3.8,14.9,76.9,0,0.75,7,��쓌,5.8,50,,
2020/6/1,16:00:00,7,��쓌,2.2,14.8,76.9,0,0.59,5,���쓌,6.3,3,,
2020/6/1,17:00:00,9,��쐼,4.5,15.2,78,0,0.42,8,��,10.8,52,,
2020/6/1,18:00:00,9,��쐼,4.1,14.1,78.1,0,0.19,9,��쐼,9.9,16,,
2020/6/1,19:00:00,8,��,3.8,13.8,80.1,0,0.05,9,��쐼,10,26,,
2020/6/1,20:00:00,8,��,2.9,13.6,81.7,0,0,8,��,7.7,14,,
2020/6/1,21:00:00,8,��,3.9,13.1,90.4,0,0,8,��,7.7,54,,
2020/6/1,22:00:00,9,��쐼,4.7,13.4,92.3,0,0,8,��,10.3,56,,
2020/6/1,23:00:00,9,��쐼,4.4,13,94,0,0,9,��쐼,9.9,29,,
2020/6/1,0:00:00,8,��,3.7,13.2,94.7,0,0,8,��,9.1,5,,
2020/6/2,1:00:00,8,��,3.1,12.3,98.2,0,0,8,��,8.7,7,,
2020/6/2,2:00:00,8,��,4.7,13.1,97.1,0,0,8,��,8.7,57,,
2020/6/2,3:00:00,10,�쐼,4.4,11.9,96.1,0,0,8,��,9.9,1,,
2020/6/2,4:00:00,7,��쓌,3.1,11.2,98.2,0,0,9,��쐼,7.3,1,,
2020/6/2,5:00:00,12,��,0.3,12,98.8,0,0.02,11,���쐼,7.5,57,,
2020/6/2,6:00:00,8,��,0.9,13.4,95.3,0,0.1,6,�쓌,1.6,30,,
2020/6/2,7:00:00,6,�쓌,2.3,13,96.7,0,0.1,6,�쓌,3.8,57,,
2020/6/2,8:00:00,8,��,2.9,13.6,95.7,0,0.15,8,��,7.8,53,,
2020/6/2,9:00:00,9,��쐼,4.4,12.9,95.1,0,0.3,8,��,8.5,29,,
2020/6/2,10:00:00,9,��쐼,3.8,13.4,90.6,0,0.54,8,��,10.1,33,,
2020/6/2,11:00:00,13,���k��,0.9,16.9,82.5,0,0.62,8,��,7.5,20,,
2020/6/2,12:00:00,4,��,2.5,17.9,80.2,0,0.75,5,���쓌,4.8,47,,
2020/6/2,13:00:00,13,���k��,2.5,21.9,65.6,0,0.9,6,�쓌,6,5,,
2020/6/2,14:00:00,10,�쐼,4.2,24.5,47.7,0,0.8,11,���쐼,8.2,45,,
2020/6/2,15:00:00,11,���쐼,6.8,23.9,46.8,0,0.78,11,���쐼,11.7,49,,
2020/6/2,16:00:00,11,���쐼,4.9,23.8,46.2,0,0.62,11,���쐼,10.4,13,,
2020/6/2,17:00:00,9,��쐼,2.8,21.5,55.4,0,0.43,9,��쐼,9,8,,
2020/6/2,18:00:00,10,�쐼,4,20.8,56.1,0,0.21,9,��쐼,9.1,57,,
2020/6/2,19:00:00,10,�쐼,3.7,18.4,65.3,0,0.04,9,��쐼,9.3,29,,
2020/6/2,20:00:00,10,�쐼,3.7,17.7,68.2,0,0,10,�쐼,6.7,39,,
2020/6/2,21:00:00,10,�쐼,4,17.6,67.6,0,0,10,�쐼,7.5,1,,
2020/6/2,22:00:00,10,�쐼,3.4,17.1,70.7,0,0,10,�쐼,7.2,5,,
2020/6/2,23:00:00,11,���쐼,3.4,16.5,72.7,0,0,9,��쐼,5.7,0,,
2020/6/2,0:00:00,11,���쐼,3.7,16.2,72.8,0,0,10,�쐼,5.4,2,,
2020/6/3,1:00:00,12,��,2.5,14.8,80.2,0,0,11,���쐼,4.8,1,,
2020/6/3,2:00:00,1,�k�k��,0.8,9.1,93.4,0,0,3,���k��,2.5,4,,
2020/6/3,3:00:00,16,�É�,0,8.9,97.4,0,0,5,���쓌,2.6,14,,
2020/6/3,4:00:00,8,��,0.6,9,97.3,0,0,7,��쓌,1.3,52,,
2020/6/3,5:00:00,12,��,0.5,9.7,98.5,0,0.03,16,�k,2.3,23,,
2020/6/3,6:00:00,16,�É�,0.1,12.4,94,0,0.1,13,���k��,1.2,5,,
2020/6/3,7:00:00,5,���쓌,1.5,14.4,82.5,0,0.25,6,�쓌,3.2,49,,
2020/6/3,8:00:00,7,��쓌,1.2,17.8,66.2,0,0.52,6,�쓌,4.3,28,,
2020/6/3,9:00:00,6,�쓌,2.8,18.3,67.3,0,0.82,5,���쓌,4.7,48,,
2020/6/3,10:00:00,6,�쓌,3,17.8,58.9,0,0.97,6,�쓌,4.8,53,,
2020/6/3,11:00:00,6,�쓌,2.5,19.9,53.3,0,1.04,6,�쓌,5.2,10,,
2020/6/3,12:00:00,5,���쓌,2.6,21.4,52.4,0,1.11,5,���쓌,5.1,27,,
2020/6/3,13:00:00,4,��,2.4,20.7,55.9,0,1.06,5,���쓌,4.9,9,,
2020/6/3,14:00:00,4,��,1.8,19.9,53.9,0,0.95,5,���쓌,4.3,6,,
2020/6/3,15:00:00,8,��,2.6,21.6,47.2,0,0.79,7,��쓌,5.8,58,,
2020/6/3,16:00:00,7,��쓌,2.3,21.5,43.1,0,0.64,7,��쓌,5.9,13,,
2020/6/3,17:00:00,5,���쓌,2.2,18.1,65.6,0,0.36,8,��,3.7,19,,
2020/6/3,18:00:00,4,��,2,14.3,84.4,0,0.11,4,��,2.9,11,,
2020/6/3,19:00:00,3,���k��,1.4,11.7,89,0,0.03,3,���k��,4.2,1,,
2020/6/3,20:00:00,11,���쐼,0.4,9.7,93,0,0,6,�쓌,2.3,56,,
2020/6/3,21:00:00,12,��,1,8.1,96.9,0,0,11,���쐼,1.9,24,,
2020/6/3,22:00:00,6,�쓌,0.5,7.9,98.1,0,0,9,��쐼,2.3,46,,
2020/6/3,23:00:00,2,�k��,1.1,8.8,99.8,0,0,2,�k��,3,49,,
2020/6/3,0:00:00,14,�k��,0.7,6.8,99.4,0,0,2,�k��,7.1,29,,
2020/6/4,1:00:00,14,�k��,2,8.7,100,0,0,14,�k��,10.3,7,,
2020/6/4,2:00:00,13,���k��,1.7,7,99.2,0,0,14,�k��,2.8,37,,
2020/6/4,3:00:00,14,�k��,1.4,7.6,99.2,0,0,13,���k��,3,43,,
2020/6/4,4:00:00,13,���k��,1.5,6.5,99.3,0,0,13,���k��,3.6,27,,
2020/6/4,5:00:00,12,��,1.1,8.4,100,0,0.08,13,���k��,2.6,30,,
2020/6/4,6:00:00,16,�É�,0.1,12.5,92.2,0,0.26,12,��,2.7,8,,
2020/6/4,7:00:00,5,���쓌,0.9,15.9,81.3,0,0.47,5,���쓌,2.4,56,,
2020/6/4,8:00:00,4,��,3.3,15.2,77.3,0,0.66,4,��,4.8,56,,
2020/6/4,9:00:00,5,���쓌,2.8,14.9,75.6,0,0.82,4,��,4.8,25,,
2020/6/4,10:00:00,4,��,3.9,14.8,77.7,0,0.9,4,��,5.3,59,,
2020/6/4,11:00:00,5,���쓌,3,13.9,79.2,0,1.03,4,��,5.4,23,,
2020/6/4,12:00:00,4,��,3.3,13.3,80.1,0,1.11,3,���k��,6.2,57,,
2020/6/4,13:00:00,5,���쓌,2.8,12,83,0,1.05,6,�쓌,4.9,25,,
2020/6/4,14:00:00,6,�쓌,2.5,11.5,86.8,0,0.74,5,���쓌,4.6,30,,
2020/6/4,15:00:00,4,��,1.1,11.9,90.5,0,0.45,6,�쓌,4.4,4,,
2020/6/4,16:00:00,5,���쓌,2.5,10.3,92.9,0,0.33,5,���쓌,4,54,,
2020/6/4,17:00:00,6,�쓌,1.9,10,96.9,0,0.16,6,�쓌,4.1,30,,
2020/6/4,18:00:00,4,��,1.4,9.8,97.6,0,0.07,4,��,3.2,26,,
2020/6/4,19:00:00,4,��,1.9,9.3,99,0,0.02,3,���k��,3.6,50,,
2020/6/4,20:00:00,3,���k��,2.7,9,99.6,0,0,4,��,4.4,44,,
2020/6/4,21:00:00,3,���k��,2.8,8.9,100,0,0,4,��,5.1,58,,
2020/6/4,22:00:00,3,���k��,2.8,9,100,0,0,2,�k��,6,10,,
2020/6/4,23:00:00,2,�k��,4,8.8,100,0,0,2,�k��,6.7,35,,
2020/6/4,0:00:00,14,�k��,2,9.3,100,0,0,3,���k��,7,21,,
2020/6/5,1:00:00,12,��,2.3,9.4,100,1.5,0,13,���k��,4.1,1,,
2020/6/5,2:00:00,14,�k��,0.9,9.7,100,0,0,13,���k��,2.5,0,,
2020/6/5,3:00:00,13,���k��,1.4,10,100,0,0,13,���k��,2.9,45,,
2020/6/5,4:00:00,15,�k�k��,0.8,10.7,100,0,0,14,�k��,3.7,23,,
2020/6/5,5:00:00,12,��,0.6,11.1,100,0,0.02,13,���k��,1.8,13,,
2020/6/5,6:00:00,13,���k��,0.6,11.4,100,0,0.06,13,���k��,2.3,35,,
2020/6/5,7:00:00,4,��,0.4,12.7,100,0,0.17,14,�k��,2.4,17,,
2020/6/5,8:00:00,6,�쓌,1.8,13.1,97.4,0,0.24,5,���쓌,2.8,56,,
2020/6/5,9:00:00,5,���쓌,2.2,13.3,94.6,0,0.34,4,��,3.8,25,,
2020/6/5,10:00:00,5,���쓌,2.8,12.6,92.8,0,0.48,5,���쓌,4.1,53,,
2020/6/5,11:00:00,5,���쓌,3.7,13.8,90.1,0,0.63,5,���쓌,5.1,56,,
2020/6/5,12:00:00,4,��,3.4,14.6,87.8,0,0.71,4,��,5.6,12,,
2020/6/5,13:00:00,6,�쓌,3.1,13.1,88.4,0,0.7,6,�쓌,5.1,36,,
2020/6/5,14:00:00,5,���쓌,1.7,14.7,85,0,0.74,6,�쓌,4.2,0,,
2020/6/5,15:00:00,4,��,1.8,16.8,81.4,0,0.78,4,��,3.2,49,,
2020/6/5,16:00:00,5,���쓌,1.8,16,80.8,0,0.61,5,���쓌,3.5,28,,
2020/6/5,17:00:00,8,��,1.7,16.7,73.8,0,0.43,8,��,2.5,53,,
2020/6/5,18:00:00,5,���쓌,0.6,15.8,82.8,0,0.23,9,��쐼,2.5,0,,
2020/6/5,19:00:00,11,���쐼,0.6,12.1,96.6,0,0.06,11,���쐼,1.6,0,,
2020/6/5,20:00:00,14,�k��,1.9,14.3,79.3,0,0,12,��,4,13,,
2020/6/5,21:00:00,4,��,2.1,9,97,0,0,3,���k��,4.7,34,,
2020/6/5,22:00:00,16,�k,0.7,8,98.5,0,0,3,���k��,2.9,8,,
2020/6/5,23:00:00,12,��,2.2,7.9,100,0,0,13,���k��,2.7,50,,
2020/6/5,0:00:00,12,��,2.2,7.9,100,0,0,13,���k��,3,59,,
2020/6/6,1:00:00,13,���k��,2,8.3,100,0,0,13,���k��,3.3,1,,
2020/6/6,2:00:00,13,���k��,1.6,8.7,100,0,0,13,���k��,3.1,26,,
2020/6/6,3:00:00,13,���k��,1.6,8,99.9,0,0,13,���k��,2.9,50,,
2020/6/6,4:00:00,13,���k��,1.1,7.4,100,0,0,13,���k��,2.4,49,,
2020/6/6,5:00:00,12,��,1.1,9.8,100,0,0.09,13,���k��,2.8,41,,
2020/6/6,6:00:00,7,��쓌,2.4,11,92.9,0,0.23,7,��쓌,3.8,57,,
2020/6/6,7:00:00,6,�쓌,1.1,12,98.3,0,0.37,8,��,2.6,1,,
2020/6/6,8:00:00,6,�쓌,2.3,13.6,88.4,0,0.57,6,�쓌,3.5,54,,
2020/6/6,9:00:00,6,�쓌,2.4,13.7,89.3,0,0.73,6,�쓌,4.1,46,,
2020/6/6,10:00:00,7,��쓌,2.4,16.5,80.7,0,0.91,6,�쓌,5.6,19,,
2020/6/6,11:00:00,7,��쓌,3.3,16.6,78.7,0,1.06,7,��쓌,5.2,52,,
2020/6/6,12:00:00,7,��쓌,3.8,15.8,79.4,0,1.08,7,��쓌,5.8,36,,
2020/6/6,13:00:00,7,��쓌,3.1,13.6,82.9,0,0.91,6,�쓌,5.7,29,,
2020/6/6,14:00:00,5,���쓌,2.8,11.7,91.3,0,0.62,8,��,5.4,12,,
2020/6/6,15:00:00,4,��,4.3,11.6,92.2,0,0.33,4,��,6.1,59,,
2020/6/6,16:00:00,4,��,2.8,10.4,94,0,0.19,4,��,6.6,14,,
2020/6/6,17:00:00,3,���k��,1.1,10.4,98.2,0,0.09,3,���k��,4.5,1,,
2020/6/6,18:00:00,12,��,0.9,10.6,97.6,0,0.07,12,��,1.9,48,,
2020/6/6,19:00:00,12,��,1.6,10.8,98,0.5,0.01,13,���k��,2.3,57,,
2020/6/6,20:00:00,13,���k��,1.3,11.2,97.8,0,0,13,���k��,2.8,21,,
2020/6/6,21:00:00,16,�É�,0,11.5,97.5,0,0,14,�k��,1.9,17,,
2020/6/6,22:00:00,11.6,���쐼,98,0,0,,,,,,,,
2020/6/6,23:00:00,12,��,0.3,11.7,98.8,0,0,11,���쐼,1.7,59,,
2020/6/6,0:00:00,13,���k��,0.6,11.8,99.1,0,0,13,���k��,1.5,4,,
2020/6/7,1:00:00,9,��쐼,0.8,11.7,99.4,0,0,6,�쓌,2.7,41,,
2020/6/7,2:00:00,16,�É�,0,11.2,99.3,0,0,7,��쓌,1.3,38,,
2020/6/7,3:00:00,13,���k��,0.3,11.1,99.9,0,0,13,���k��,3.6,59,,
2020/6/7,4:00:00,13,���k��,0.3,11,100,0,0,12,��,2.2,50,,
2020/6/7,5:00:00,13,���k��,0.5,11.6,100,0,0.02,13,���k��,1.5,34,,
2020/6/7,6:00:00,9,��쐼,0.5,12.2,99.9,0,0.04,11,���쐼,2.2,3,,
2020/6/7,7:00:00,8,��,1.3,13,97.6,0,0.09,8,��,1.9,56,,
2020/6/7,8:00:00,8,��,1,13.2,94.4,0,0.17,9,��쐼,2.8,42,,
2020/6/7,9:00:00,7,��쓌,1.5,14.1,89.2,0,0.36,8,��,2.5,56,,
2020/6/7,10:00:00,7,��쓌,1.8,14.6,87.1,0,0.35,7,��쓌,2.9,37,,
2020/6/7,11:00:00,8,��,1.9,16.1,77.5,0,0.53,6,�쓌,3.3,42,,
2020/6/7,12:00:00,9,��쐼,3,18.1,69.3,0,0.9,9,��쐼,6.1,45,,
2020/6/7,13:00:00,8,��,3.7,15.3,75.7,0,0.71,8,��,7,45,,
2020/6/7,14:00:00,8,��,3.4,15.9,74.5,0,0.58,9,��쐼,6.1,2,,
2020/6/7,15:00:00,8,��,3.8,16.9,73.1,0,0.77,8,��,6.2,18,,
2020/6/7,16:00:00,8,��,2.5,16.6,74.2,0,0.62,8,��,5.8,1,,
2020/6/7,17:00:00,7,��쓌,1.6,16,75.6,0,0.39,8,��,4.6,13,,
2020/6/7,18:00:00,5,���쓌,1.2,14.2,85.5,0,0.22,8,��,2.9,13,,
2020/6/7,19:00:00,2,�k��,0.9,10.4,93.7,0,0.03,6,�쓌,1.7,5,,
2020/6/7,20:00:00,14,�k��,1,8.5,98.3,0,0,13,���k��,3,48,,
2020/6/7,21:00:00,8.5,��,98,0,0,,,,,,,,
2020/6/7,22:00:00,2,�k��,0.5,10.4,96.1,0,0,1,�k�k��,2,39,,
2020/6/7,23:00:00,10.9,�쐼,97.1,0,0,,,,,,,,
2020/6/7,0:00:00,13,���k��,0.9,10.5,98.4,0,0,12,��,1.9,15,,
2020/6/8,1:00:00,14,�k��,0.4,8.5,98.8,0,0,11,���쐼,1.5,2,,
2020/6/8,2:00:00,12,��,0.5,5.9,99.4,0,0,11,���쐼,7.6,51,,
2020/6/8,3:00:00,12,��,0.6,5.9,100,0,0,15,�k�k��,2.1,31,,
2020/6/8,4:00:00,12,��,1.3,5.5,100,0,0,12,��,2.2,17,,
2020/6/8,5:00:00,12,��,0.8,8.8,100,0,0.07,12,��,2.2,16,,
2020/6/8,6:00:00,13,���k��,0.5,12,98.2,0,0.29,13,���k��,2,22,,
2020/6/8,7:00:00,15.2,�k�k��,81.3,0,0.48,,,,,,,,
2020/6/8,8:00:00,5,���쓌,2.7,15.2,78.9,0,0.7,5,���쓌,3.8,51,,
2020/6/8,9:00:00,4,��,2.1,17.8,74.2,0,0.68,3,���k��,3.8,14,,
2020/6/8,10:00:00,4,��,3.2,18.8,69.2,0,1.01,5,���쓌,4.4,56,,
2020/6/8,11:00:00,5,���쓌,3.3,16,78.3,0,1.04,5,���쓌,4.8,12,,
2020/6/8,12:00:00,5,���쓌,2.4,13.9,82.8,0,1.05,6,�쓌,4.9,4,,
2020/6/8,13:00:00,5,���쓌,1.6,15.4,80.6,0,0.55,5,���쓌,3,43,,
2020/6/8,14:00:00,4,��,1.2,15.4,82.1,0,0.29,5,���쓌,2.4,42,,
2020/6/8,15:00:00,2,�k��,2,19.9,74.1,0,0.38,2,�k��,3.2,8,,
2020/6/8,16:00:00,5,���쓌,1.6,18.3,76.7,0,0.34,3,���k��,3.5,0,,
2020/6/8,17:00:00,5,���쓌,0.8,17.3,81.1,0,0.25,5,���쓌,2.4,13,,
2020/6/8,18:00:00,5,���쓌,0.8,15.4,88.7,0,0.12,5,���쓌,2.9,6,,
2020/6/8,19:00:00,6,�쓌,1.1,12.7,93.6,0,0.02,5,���쓌,4,27,,
2020/6/8,20:00:00,5,���쓌,0.4,12.4,94.9,0,0,6,�쓌,1.8,3,,
2020/6/8,21:00:00,16,�É�,0.1,12.2,96.9,0,0,4,��,1.5,7,,
2020/6/8,22:00:00,16,�É�,0.1,11.7,95.8,0,0,4,��,2.1,15,,
2020/6/8,23:00:00,5,���쓌,2.1,11.4,96.5,0,0,5,���쓌,3.7,37,,
2020/6/8,0:00:00,6,�쓌,0.5,11.2,98.1,0,0,5,���쓌,2.7,5,,
2020/6/9,1:00:00,10,�쐼,0.8,11.1,99.7,0,0,11,���쐼,1.5,41,,
2020/6/9,2:00:00,2,�k��,0.4,11.1,100,0,0,12,��,1.6,44,,
2020/6/9,3:00:00,15,�k�k��,1,10.7,100,0,0,14,�k��,1.7,56,,
2020/6/9,4:00:00,14,�k��,0.9,10.4,100,0,0,14,�k��,2.1,58,,
2020/6/9,5:00:00,10.4,�쐼,100,0,0.03,,,,,,,,
2020/6/9,6:00:00,13,���k��,1.4,11.7,100,0,0.18,13,���k��,2.4,41,,
2020/6/9,7:00:00,14,�k��,0.7,12.9,100,0,0.2,13,���k��,1.9,19,,
2020/6/9,8:00:00,11,���쐼,0.7,15.1,90.5,0,0.32,11,���쐼,2.5,56,,
2020/6/9,9:00:00,7,��쓌,2.3,16.6,78.6,0,0.6,9,��쐼,4.4,46,,
2020/6/9,10:00:00,7,��쓌,2.2,16.5,73,0,0.7,6,�쓌,4.6,46,,
2020/6/9,11:00:00,7,��쓌,2.9,16.5,74.4,0,0.9,8,��,5.8,37,,
2020/6/9,12:00:00,6,�쓌,2.8,15.8,79.9,0,0.98,6,�쓌,5.2,5,,
2020/6/9,13:00:00,6,�쓌,2.7,15.7,78.9,0,1,6,�쓌,5,55,,
2020/6/9,14:00:00,5,���쓌,2.7,14,83.4,0,0.85,6,�쓌,5.3,36,,
2020/6/9,15:00:00,4,��,2.3,13.8,90,0,0.41,5,���쓌,4,29,,
2020/6/9,16:00:00,3,���k��,2.9,13.4,90.6,0,0.33,3,���k��,4.6,55,,
2020/6/9,17:00:00,2,�k��,3.7,13.2,92.3,0,0.22,2,�k��,6.1,42,,
2020/6/9,18:00:00,2,�k��,3.4,13,93.6,0,0.08,2,�k��,5.8,27,,
2020/6/9,19:00:00,1,�k�k��,1.8,12.6,95.2,0,0.02,2,�k��,5.5,1,,
2020/6/9,20:00:00,2,�k��,1.1,12,97.1,0,0,1,�k�k��,2.9,22,,
2020/6/9,21:00:00,2,�k��,2.3,12.3,97.5,0,0,16,�k,3.3,59,,
2020/6/9,22:00:00,2,�k��,0.9,12.2,98.1,0,0,1,�k�k��,3.4,17,,
2020/6/9,23:00:00,2,�k��,0.9,12.2,99,0,0,3,���k��,2.1,40,,
2020/6/9,0:00:00,15,�k�k��,0.5,12.1,99.7,0,0,1,�k�k��,1.9,36,,
2020/6/10,1:00:00,13,���k��,1.2,11.5,100,0,0,13,���k��,2.1,2,,
2020/6/10,2:00:00,12,��,1.3,11,100,0,0,13,���k��,2,52,,
2020/6/10,3:00:00,16,�É�,0.1,10.7,100,0,0,9,��쐼,1.7,57,,
2020/6/10,4:00:00,12,��,0.3,10.3,100,0,0,9,��쐼,1.4,43,,
2020/6/10,5:00:00,5,���쓌,0.3,10.4,100,0,0.04,16,�k,2.1,11,,
2020/6/10,6:00:00,8,��,0.8,11.5,100,0,0.12,8,��,2.3,49,,
2020/6/10,7:00:00,2,�k��,1.3,12.6,100,0,0.27,2,�k��,2.8,59,,
2020/6/10,8:00:00,8,��,1,14.9,97.8,0,0.43,2,�k��,2.9,0,,
2020/6/10,9:00:00,7,��쓌,1.8,15.9,89.8,0,0.49,6,�쓌,3.1,34,,
2020/6/10,10:00:00,6,�쓌,1.7,18.7,81.2,0,0.72,6,�쓌,3,44,,
2020/6/10,11:00:00,6,�쓌,1.8,15.8,83.5,0,0.57,7,��쓌,3.9,24,,
2020/6/10,12:00:00,7,��쓌,1.4,17.5,82.8,0,0.5,8,��,2.8,56,,
2020/6/10,13:00:00,7,��쓌,2.3,20.1,70.9,0,0.88,6,�쓌,3.6,39,,
2020/6/10,14:00:00,7,��쓌,1.3,20,69.5,0,0.77,6,�쓌,3.8,16,,
2020/6/10,15:00:00,5,���쓌,2.1,16.7,80.5,0,0.42,6,�쓌,3.1,13,,
2020/6/10,16:00:00,16,�É�,0.1,17.7,77.9,0,0.26,4,��,2.3,0,,
2020/6/10,17:00:00,9,��쐼,0.6,19.7,76.1,0,0.29,13,���k��,1.4,42,,
2020/6/10,18:00:00,9,��쐼,0.5,19.8,78.5,0,0.16,12,��,1.8,31,,
2020/6/10,19:00:00,3,���k��,1.6,16,89.2,0,0.03,4,��,2.5,53,,
2020/6/10,20:00:00,14,�k��,0.4,14.4,93.8,0,0,1,�k�k��,1.1,9,,
2020/6/10,21:00:00,16,�É�,0.1,14.4,94,0,0,11,���쐼,2.1,15,,
2020/6/10,22:00:00,14,�k��,0.9,14.5,94.7,0,0,7,��쓌,5,34,,
2020/6/10,23:00:00,10,�쐼,1.1,15.2,97.3,0,0,8,��,5.7,39,,
2020/6/10,0:00:00,15,�k�k��,0.8,13.4,97.4,0,0,7,��쓌,3,2,,
2020/6/11,1:00:00,16,�k,0.7,12.1,97.3,0,0,16,�k,2.3,3,,
2020/6/11,2:00:00,2,�k��,2.5,13.3,92.8,0,0,3,���k��,3.5,58,,
2020/6/11,3:00:00,2,�k��,2.5,14.2,90.1,0,0,2,�k��,4.1,19,,
2020/6/11,4:00:00,1,�k�k��,0.9,13.8,91.1,0,0,2,�k��,3.3,1,,
2020/6/11,5:00:00,3,���k��,0.3,14.4,94.1,0,0.06,1,�k�k��,2.6,5,,
2020/6/11,6:00:00,7,��쓌,0.9,15.8,86.2,0,0.18,6,�쓌,3.6,25,,
2020/6/11,7:00:00,5,���쓌,1.1,18,83.5,0,0.31,5,���쓌,2.4,57,,
2020/6/11,8:00:00,3,���k��,2.4,19.2,75.1,0,0.49,3,���k��,3.5,51,,
2020/6/11,9:00:00,4,��,2.8,18.8,73.7,0,0.71,4,��,5.1,27,,
2020/6/11,10:00:00,3,���k��,2.5,18.9,73,0,0.86,5,���쓌,4.6,10,,
2020/6/11,11:00:00,4,��,2.1,19.5,72.6,0,0.54,3,���k��,4.2,49,,
2020/6/11,12:00:00,3,���k��,3.6,14.9,83.6,0,0.29,3,���k��,5.7,54,,
2020/6/11,13:00:00,16,�É�,0.1,15,91.5,0,0.22,3,���k��,4.6,0,,
2020/6/11,14:00:00,16,�É�,0.1,16.3,88,0,0.23,12,��,1.9,42,,
2020/6/11,15:00:00,5,���쓌,1.8,13.8,94,0,0.18,5,���쓌,3,8,,
2020/6/11,16:00:00,5,���쓌,1.4,13.6,94.5,0,0.12,5,���쓌,2.5,59,,
2020/6/11,17:00:00,3,���k��,1.3,13.4,95.1,0,0.13,4,��,4.3,15,,
2020/6/11,18:00:00,5,���쓌,0.6,13,98.4,0,0.07,2,�k��,3.6,27,,
2020/6/11,19:00:00,3,���k��,1,13.1,98.6,0,0.05,4,��,2.2,35,,
2020/6/11,20:00:00,4,��,1.2,12.2,99.7,0,0,7,��쓌,2.8,43,,
2020/6/11,21:00:00,2,�k��,1,12.3,100,0,0,2,�k��,1.8,44,,
2020/6/11,22:00:00,16,�k,1.3,11.9,100,0,0,16,�k,6.7,38,,
2020/6/11,23:00:00,12,��,0.9,10.2,100,0,0,13,���k��,2.2,55,,
2020/6/11,0:00:00,16,�k,0.7,10.2,100,0,0,4,��,3.3,34,,
2020/6/12,1:00:00,1,�k�k��,1.5,12.1,100,0,0,14,�k��,4,25,,
2020/6/12,2:00:00,14,�k��,1.2,12.5,100,0,0,13,���k��,7.7,44,,
2020/6/12,3:00:00,11,���쐼,3.3,13.8,100,0,0,13,���k��,6,10,,
2020/6/12,4:00:00,4,��,1.9,11.5,99.7,0,0,4,��,5,17,,
2020/6/12,5:00:00,1,�k�k��,0.8,14.5,100,0,0.09,2,�k��,4.9,0,,
2020/6/12,6:00:00,13,���k��,0.7,16.7,95.3,0,0.2,2,�k��,4.4,6,,
2020/6/12,7:00:00,10,�쐼,0.9,20.3,83,0,0.28,9,��쐼,2.4,58,,
2020/6/12,8:00:00,3,���k��,1.6,18.6,90.9,0,0.24,4,��,3.2,44,,
2020/6/12,9:00:00,3,���k��,1.6,18.9,87.5,0,0.27,4,��,3.5,22,,
2020/6/12,10:00:00,4,��,0.9,23,68.1,0,0.6,2,�k��,3.3,18,,
2020/6/12,11:00:00,5,���쓌,2.2,22.5,65.3,0,0.53,4,��,3.5,40,,
2020/6/12,12:00:00,5,���쓌,2.7,24.6,55,0,0.78,6,�쓌,4.3,51,,
2020/6/12,13:00:00,5,���쓌,3.3,25.7,56.1,0,1.07,5,���쓌,4.6,59,,
2020/6/12,14:00:00,6,�쓌,2.4,22.4,59.8,0,0.76,5,���쓌,4.9,20,,
2020/6/12,15:00:00,8,��,2.7,23.7,52,0,0.67,8,��,5.3,36,,
2020/6/12,16:00:00,6,�쓌,2.5,24.8,48.4,0,0.52,7,��쓌,4.5,22,,
2020/6/12,17:00:00,7,��쓌,2,23,50.5,0,0.43,6,�쓌,3.8,15,,
2020/6/12,18:00:00,7,��쓌,0.8,21.7,59.6,0,0.23,6,�쓌,2.8,1,,
2020/6/12,19:00:00,13,���k��,0.9,16.3,77.3,0,0.06,2,�k��,2.6,14,,
2020/6/12,20:00:00,13,���k��,2.5,15.5,77.4,0,0,13,���k��,4.5,52,,
2020/6/12,21:00:00,13,���k��,1.6,12.6,87.7,0,0,12,��,2.4,32,,
2020/6/12,22:00:00,13,���k��,2.1,11.2,92,0,0,13,���k��,2.8,47,,
2020/6/12,23:00:00,13,���k��,1.2,10.4,94.7,0,0,1,�k�k��,2.7,9,,
2020/6/12,0:00:00,13,���k��,1.4,8.9,94.2,0,0,13,���k��,2.5,45,,
2020/6/13,1:00:00,13,���k��,2.2,8.5,96.7,0,0,13,���k��,3.9,30,,
2020/6/13,2:00:00,12,��,2.6,8.3,97.1,0,0,12,��,3.1,55,,
2020/6/13,3:00:00,12,��,1.5,7.5,97.8,0,0,12,��,4.1,22,,
2020/6/13,4:00:00,12,��,2.2,7.5,98.4,0,0,12,��,3.5,26,,
2020/6/13,5:00:00,13,���k��,2.1,11.1,95.7,0,0.09,12,��,3.5,43,,
2020/6/13,6:00:00,12,��,1.8,16.2,77.8,0,0.26,12,��,3.1,39,,
2020/6/13,7:00:00,7,��쓌,0.6,22,66.6,0,0.45,12,��,2.6,5,,
2020/6/13,8:00:00,10,�쐼,4.8,26.7,37.6,0,0.63,10,�쐼,8.6,43,,
2020/6/13,9:00:00,9,��쐼,4.8,28.7,33.4,0,0.81,10,�쐼,9.5,54,,
2020/6/13,10:00:00,11,���쐼,7.1,31,23.1,0,0.96,11,���쐼,11.2,47,,
2020/6/13,11:00:00,11,���쐼,7.6,31.3,21.4,0,1.06,10,�쐼,11.4,16,,
2020/6/13,12:00:00,11,���쐼,8.4,32.3,21.3,0,1.1,11,���쐼,13,54,,
2020/6/13,13:00:00,11,���쐼,8.6,30.6,28.1,0,1.06,11,���쐼,13.3,25,,
2020/6/13,14:00:00,11,���쐼,7.5,30.3,29.2,0,0.97,12,��,13,10,,
2020/6/13,15:00:00,11,���쐼,7.7,29.7,29.3,0,0.81,10,�쐼,12.1,46,,
2020/6/13,16:00:00,11,���쐼,8,29.1,31.1,0,0.69,11,���쐼,13.5,1,,
2020/6/13,17:00:00,10,�쐼,6.3,27.2,36.5,0,0.46,10,�쐼,11.1,0,,
2020/6/13,18:00:00,10,�쐼,5.3,25,41.4,0,0.17,10,�쐼,10.3,9,,
2020/6/13,19:00:00,10,�쐼,5.3,23.4,47.5,0,0.07,11,���쐼,9.8,6,,
2020/6/13,20:00:00,9,��쐼,3.5,20.6,52.6,0,0.01,8,��,8.1,54,,
2020/6/13,21:00:00,9,��쐼,3.5,18.9,57.3,0,0,10,�쐼,6.6,33,,
2020/6/13,22:00:00,9,��쐼,3.3,19,56.8,0,0,9,��쐼,7.2,41,,
2020/6/13,23:00:00,10,�쐼,2.5,16.6,66.4,0,0,8,��,6.3,4,,
2020/6/13,0:00:00,14,�k��,1.4,12.5,87.7,0,0,10,�쐼,4.1,10,,
2020/6/14,1:00:00,12,��,1.8,11.8,91.4,0,0,13,���k��,2.3,56,,
2020/6/14,2:00:00,11,���쐼,1.7,9.8,93.4,0,0,12,��,3,43,,
2020/6/14,3:00:00,12,��,2,9.4,96.3,0,0,12,��,2.8,22,,
2020/6/14,4:00:00,13,���k��,1.7,9.9,96.9,0,0,12,��,3.3,12,,
2020/6/14,5:00:00,13,���k��,1.6,12.7,91.6,0,0.09,14,�k��,3.1,12,,
2020/6/14,6:00:00,13,���k��,1.6,17.1,77.2,0,0.26,13,���k��,3.7,23,,
2020/6/14,7:00:00,14,�k��,1.9,22.4,62,0,0.47,15,�k�k��,3.6,37,,
2020/6/14,8:00:00,7,��쓌,2.6,21.6,68.6,0,0.57,6,�쓌,4.1,51,,
2020/6/14,9:00:00,7,��쓌,2,23.4,52.7,0,0.76,6,�쓌,4.2,42,,
2020/6/14,10:00:00,7,��쓌,3.1,22.1,56.4,0,0.75,7,��쓌,5,55,,
2020/6/14,11:00:00,7,��쓌,2.3,18.3,68.8,0,0.61,8,��,4.6,3,,
2020/6/14,12:00:00,4,��,1.3,21.3,63.2,0,0.56,7,��쓌,4.7,24,,
2020/6/14,13:00:00,2,�k��,2,22.4,60.1,0,0.58,2,�k��,2.7,57,,
2020/6/14,14:00:00,5,���쓌,3,19.6,67.5,0,0.6,5,���쓌,4.5,51,,
2020/6/14,15:00:00,3,���k��,2.5,21.5,64.8,0,0.67,3,���k��,4.8,43,,
2020/6/14,16:00:00,5,���쓌,2.9,18.3,73,0,0.4,4,��,4.3,59,,
2020/6/14,17:00:00,3,���k��,2.6,14.1,86.4,0,0.19,5,���쓌,6.7,27,,
2020/6/14,18:00:00,3,���k��,2.1,14.5,87.9,0,0.09,2,�k��,3.8,35,,
2020/6/14,19:00:00,5,���쓌,1.8,13.3,92.4,0,0.02,3,���k��,3.3,49,,
2020/6/14,20:00:00,2,�k��,1.8,13.2,94.5,0,0,3,���k��,3.3,42,,
2020/6/14,21:00:00,3,���k��,3,14,95.3,0,0,3,���k��,4,50,,
2020/6/14,22:00:00,5,���쓌,2.8,13.7,98.1,0,0,4,��,5,47,,
2020/6/14,23:00:00,3,���k��,2.6,13.4,99.7,0,0,3,���k��,4.1,56,,
2020/6/14,0:00:00,2,�k��,2.6,12.5,100,0,0,2,�k��,4.7,55,,
2020/6/15,1:00:00,2,�k��,2.5,12.7,100,0,0,2,�k��,4.6,53,,
2020/6/15,2:00:00,2,�k��,0.6,12.7,100,0,0,3,���k��,3.5,10,,
2020/6/15,3:00:00,16,�k,0.8,13.4,100,0,0,1,�k�k��,2.8,14,,
2020/6/15,4:00:00,14,�k��,0.7,13.6,100,0,0,14,�k��,1.7,3,,
2020/6/15,5:00:00,13,���k��,2.2,14,100,0,0.02,12,��,4.3,52,,
2020/6/15,6:00:00,1,�k�k��,1.1,14.7,100,0,0.04,2,�k��,2.1,32,,
2020/6/15,7:00:00,16,�k,0.3,14.9,100,0,0.06,16,�k,2.2,7,,
2020/6/15,8:00:00,1,�k�k��,1.5,15.6,100,3,0.07,16,�k,2.5,59,,
2020/6/15,9:00:00,2,�k��,1.3,15.6,100,0,0.1,1,�k�k��,2.8,17,,
2020/6/15,10:00:00,4,��,1.5,16.1,100,1,0.19,4,��,3.1,8,,
2020/6/15,11:00:00,2,�k��,2.7,16,99.5,0,0.28,3,���k��,4.3,21,,
2020/6/15,12:00:00,4,��,3.1,16.9,94.2,0,0.38,4,��,5.4,46,,
2020/6/15,13:00:00,4,��,2.1,16.1,96.2,0,0.28,4,��,4.7,20,,
2020/6/15,14:00:00,5,���쓌,3.9,14.8,97.9,0,0.31,5,���쓌,5.4,49,,
2020/6/15,15:00:00,5,���쓌,2.5,13.6,99.3,0,0.14,5,���쓌,4.7,2,,
2020/6/15,16:00:00,5,���쓌,1.4,13.2,100,0,0.1,4,��,3.2,15,,
2020/6/15,17:00:00,5,���쓌,1.1,12.9,100,0,0.05,5,���쓌,2.1,2,,
2020/6/15,18:00:00,4,��,1.3,13.6,100,0,0.05,4,��,2.2,57,,
2020/6/15,19:00:00,4,��,1.7,13.2,100,0,0.03,4,��,2.4,31,,
2020/6/15,20:00:00,3,���k��,2.1,12.7,100,0,0,4,��,3.6,45,,
2020/6/15,21:00:00,3,���k��,2.2,12.3,100,0,0,4,��,5.1,29,,
2020/6/15,22:00:00,3,���k��,2,12.2,100,0,0,3,���k��,3,45,,
2020/6/15,23:00:00,3,���k��,1.3,12.3,100,0,0,1,�k�k��,3.1,28,,
2020/6/15,0:00:00,3,���k��,2.8,12.5,100,0.5,0,3,���k��,4,57,,
2020/6/16,1:00:00,11,���쐼,0.3,12.6,100,0,0,3,���k��,4,2,,
2020/6/16,2:00:00,2,�k��,1.5,12.5,100,0,0,2,�k��,2.5,49,,
2020/6/16,3:00:00,11,���쐼,1,13,100,0,0,13,���k��,1.6,12,,
2020/6/16,4:00:00,13,���k��,1.2,13.2,100,0,0,12,��,1.7,52,,
2020/6/16,5:00:00,6,�쓌,1.2,12.1,100,0,0.01,6,�쓌,2.6,49,,
2020/6/16,6:00:00,5,���쓌,0.5,12.2,100,0,0.03,6,�쓌,2,35,,
2020/6/16,7:00:00,2,�k��,0.7,13.4,100,0,0.1,1,�k�k��,1.7,40,,
2020/6/16,8:00:00,4,��,0.6,14.1,100,0,0.2,2,�k��,6.6,26,,
2020/6/16,9:00:00,13,���k��,1.6,15.8,100,0,0.28,13,���k��,2.4,59,,
2020/6/16,10:00:00,5,���쓌,3.4,15.2,92.9,0,0.47,5,���쓌,5.9,58,,
2020/6/16,11:00:00,3,���k��,3.1,17.2,90.4,0,0.7,4,��,5.8,25,,
2020/6/16,12:00:00,4,��,4.3,17.2,88,0,0.89,4,��,6.2,50,,
2020/6/16,13:00:00,4,��,3.2,13.7,92.4,0,0.66,5,���쓌,6,5,,
2020/6/16,14:00:00,3,���k��,3,13.5,97,0,0.22,4,��,5.9,35,,
2020/6/16,15:00:00,3,���k��,2.7,14.1,96.2,0,0.25,3,���k��,5.5,17,,
2020/6/16,16:00:00,4,��,2.7,13.7,96.8,0,0.18,3,���k��,3.9,56,,
2020/6/16,17:00:00,3,���k��,3,13.6,98.6,0,0.13,3,���k��,4.9,32,,
2020/6/16,18:00:00,4,��,2.3,13.2,99.1,0,0.07,3,���k��,4.6,40,,
2020/6/16,19:00:00,3,���k��,2,12.8,100,0,0.02,3,���k��,4.3,11,,
2020/6/16,20:00:00,2,�k��,0.8,13.2,100,0,0,4,��,2.2,0,,
2020/6/16,21:00:00,6,�쓌,0.6,13.1,100,0,0,16,�k,1.7,10,,
2020/6/16,22:00:00,1,�k�k��,1.7,13.3,100,0,0,1,�k�k��,3.3,5,,
2020/6/16,23:00:00,14,�k��,0.8,13.2,100,0,0,2,�k��,2.4,10,,
2020/6/16,0:00:00,3,���k��,1.6,13.1,100,0,0,14,�k��,2.8,15,,
2020/6/17,1:00:00,1,�k�k��,1.2,13,100,0,0,2,�k��,3.3,4,,
2020/6/17,2:00:00,3,���k��,1.4,13.2,100,0,0,3,���k��,2.5,59,,
2020/6/17,3:00:00,14,�k��,0.5,13.4,100,0,0,3,���k��,2.2,5,,
2020/6/17,4:00:00,16,�É�,0,13.5,100,0,0,11,���쐼,1.4,1,,
2020/6/17,5:00:00,5,���쓌,1.1,13.3,100,0,0.03,7,��쓌,1.5,21,,
2020/6/17,6:00:00,10,�쐼,1.1,13.9,100,0,0.08,10,�쐼,1.9,59,,
2020/6/17,7:00:00,12,��,0.8,14.9,100,0,0.28,13,���k��,2.2,42,,
2020/6/17,8:00:00,12,��,1.6,17.5,90.4,0,0.44,12,��,4.3,24,,
2020/6/17,9:00:00,6,�쓌,2.7,19,77.1,0,0.71,6,�쓌,4.1,54,,
2020/6/17,10:00:00,6,�쓌,3.7,17.1,79.7,0,0.87,6,�쓌,6.1,52,,
2020/6/17,11:00:00,7,��쓌,3.6,17.3,79,0,1.01,6,�쓌,6.3,35,,